Simultaneous Nadir Overpasses (SNOs) Predictions

Prediction of SNOs between GOES-14 and NPP Satellite Orbit:

Table of predicted SNOs for the next 14.0 days since TLE Epoch: 11/6/2021
Index Date Time (GOES-14) GOES-14 Lat,Lon NPP Lat,Lon Distance(km) Time Diff (sec)
1 11/06/2021 08:27:59 0.16,-104.35 0.37,-105.20 97.34 80
2 11/07/2021 08:06:36 0.18,-104.34 -0.63,-100.67 417.88 80
3 11/08/2021 20:28:34 -0.15,-104.16 -0.55,-105.98 206.91 80
4 11/09/2021 20:12:31 -0.16,-104.17 0.45,-101.45 310.29 80
5 11/11/2021 08:34:22 0.13,-104.37 0.65,-106.74 269.88 80
6 11/12/2021 08:12:58 0.14,-104.36 -0.36,-102.21 245.60 80
7 11/13/2021 20:34:56 -0.11,-104.16 -0.88,-107.51 382.20 80
8 11/14/2021 20:18:52 -0.12,-104.17 0.13,-102.98 135.58 80
9 11/16/2021 08:40:44 0.09,-104.41 0.97,-108.27 440.12 80
10 11/17/2021 08:19:20 0.11,-104.41 -0.04,-103.74 75.91 80
11 11/19/2021 20:22:34 -0.10,-104.19 -0.18,-104.51 36.93 80
